Find Starlink 11255

NORAD ID: 60730 Int'l Des: 2024-152 Owner: SPXS Country: US Constellation: starlink operational
又名: STARLINK-11255 [DTC] celestrak
LEOCIRCULAR

当前视图

正在加载3D地球...

About Starlink 11255

Starlink 11255 (NORAD 60730) is a starlink constellation satellite (v2 mini d2c) launched Aug 28, 2024 by SPXS of US. It operates in LEO, CIRCULAR orbit with a mass of 960.00 kg.

即将过境

Passes for default location (London). Set your location on the main map for personalized predictions.

高度历史

Loading altitude history...

两行轨道根数

1 60730U 24152L 26236.74602635 .00001864 00000-0 20244-4 0 9997
2 60730 53.1578 7.5455 0000990 126.3142 233.7968 15.69705798115248
Epoch: Aug 24, 2026 • Age: 19 hours

当前状态

高度 364.6 km
远地点 / 近地点 N/A
速度 7.70 km/s
星下点 48.65°N, 38.61°W
发射日期 Aug 28, 2024
运行时间 1.9 years
类型 internet

技术详情

分类 Payload
质量 960.00 kg
干质量 910.00 kg
总质量 960.00 kg
长度 0.30 m
直径 4.10 m
跨度 29.00 m
形状 Box + pan
制造商 SPXS
平台类型 Starlink V2MD
阶段状态 In Orbit
所有者/国家 SPXS/US

Most Searched